logo
Rechercher aéroport 
image banner adimage banner adimage banner ad
image banner ad

RCH16 - Far Eastern Memorial Hospital

Situé à New Taipei, Taiwan, Province of China

ICAO - , IATA -

Données fournies par Airmate  

Information générale

Coordonnées: N24°59'50" E121°27'12"
Élévation : 277 feet MSL.
Variation magnétique : -5° East
Voir autres Aéroports à Taipei (municipality)

Données opérationnelles

Special qualification required
Heure actuelle UTC:
Heure actuelle locale:
Météo à : RCSS - Taipei/Songshan ( 13 km )
METAR: RCSS 171600Z 31004KT 290V350 9999 FEW018 SCT030 BKN180 29/25 Q1008 NOSIG RMK A2977
TAF: TAF RCSS 171100Z 1712/1812 27005KT 9999 FEW010 BKN032 TEMPO 1712/1716 31008KT TEMPO 1804/1810 25010KT
Voir NOTAMs / SUP AIP / TFR affectant cet aéroport [VIEW]
Fréquences de communication: [VIEW]

Pistes:

Coordonnées de l'aéroport

Adresse: New Taipei Taiwan, Province of China

Vue satellite de RCH16